www.pogodaiklimat.ru
ПОГОДА в Николо-Поломе
Время
(UTC), дата
12 11.10
15 11.10
18 11.10
21 11.10
00 12.10
03 12.10
06 12.10
09 12.10
12 12.10
15 12.10
18 12.10
21 12.10
00 13.10
03 13.10
06 13.10
09 13.10
12 13.10
15 13.10
18 13.10
21 13.10
00 14.10
03 14.10
06 14.10
09 14.10
12 14.10
15 14.10
18 14.10
21 14.10
00 15.10
03 15.10
06 15.10
09 15.10
12 15.10
15 15.10
18 15.10
21 15.10
00 16.10
03 16.10
06 16.10
09 16.10
12 16.10
15 16.10
18 16.10
21 16.10
00 17.10
03 17.10
06 17.10
09 17.10
12 17.10
15 17.10
18 17.10
21 17.10
00 18.10
03 18.10
06 18.10
Ветер
(напр.,м/с)
Видим. Явления Облачность Т
(С)
Тd
(С)
f
(%)
Тe
(С)
Тes
(С)
Комфортность P
(гПа)
Po
(гПа)
Тmin
(С)
Tmax
(С)
R
(мм)
R24
(мм)
S
(см)
СЗ 2 9000 м дымка 10/10 300 м
[Cu hum]
+5.6 +4.3 91 +3 +3 по сезону 1006.6 988.4
З 1 5000 м дымка 10/10 600 м
[Sc]
+4.9 +4.1 95 +3 +3 по сезону 1009.2 990.9 +6.0 2
Ю 1 4000 м дымка 10/10 600 м
[Sc]
+3.1 +2.7 97 +1 +1 по сезону 1010.5 992.0
ЮЗ 1 4000 м дымка 10/10 600 м
[Sc]
+3.5 +3.1 97 +2 +2 по сезону 1010.7 992.3
ЮЗ 2 4000 м дымка {дождь} 10/10 300 м
[St]
+4.5 +4.0 97 +2 +2 по сезону 1011.1 992.8
Ю 2 500 м туман 10/10 300 м
[St]
+5.0 +4.5 97 +2 +2 по сезону 1010.9 992.6 +3.1 0.5
ЮЗ 3 500 м слаб. дождь {туман} туман 10/8 300 м
[Frnb As op]
+6.2 +5.7 97 +3 +3 по сезону 1010.7 992.5
ЮЗ 3 9000 м дымка {дождь, туман} 10/10 300 м
[St]
+8.3 +7.1 92 +6 +6 тепло 1009.9 991.8
Ю 5 50 км {дождь, туман} 9/4 300 м
[Cu med, cong Ac trans]
+9.6 +6.2 79 +6 +7 тепло 1007.4 989.5
Ю 5-10
{10}
4000 м слаб. дождь 10/8 300 м
[Frnb As op]
+8.7 +6.6 87 +5 +5 тепло 1003.3 985.3 +9.7 0.4
Ю 6-11
{13}
4000 м слаб. дождь 10/8 300 м
[Frnb As op]
+7.8 +7.0 95 +3 +3 по сезону 998.1 980.2
З 5
{12}
4000 м слаб. дождь 10/8 300 м
[Frnb As op]
+8.9 +8.0 94 +5 +5 тепло 995.7 977.9
ЮЗ 5-10
{10}
4000 м дымка {дождь} 10/10 300 м
[Cu hum]
+8.1 +6.7 91 +4 +4 по сезону 995.6 977.8
ЮЗ 6
{10}
4000 м дымка 10/10 300 м
[Cu hum]
+7.9 +6.5 91 +4 +4 по сезону 995.0 977.2 +7.7 10
З 6-12
{12}
9000 м слаб. дождь 10/8 300 м
[Frnb As op]
+7.6 +6.0 90 +3 +3 по сезону 995.4 977.5 +7.6
З 5
{17}
20 км в посл. час дождь 10/10 300 м
[Sc]
+7.7 +4.3 79 +4 +4 по сезону 997.1 979.2
З 5
{11}
50 км {дождь} 10/10 300 м
[Sc]
+8.5 +4.0 73 +5 +5 тепло 999.1 981.3
З 4
{11}
20 км 10/10 300 м
[Sc]
+8.4 +2.4 66 +6 +6 тепло 1001.3 983.4 +8.8 2
З 3
{11}
20 км 9/0
[Ac trans]
+6.7 +1.6 70 +4 +4 по сезону 1003.4 985.3
З 3
{10}
20 км 8/0
[Ac trans]
+4.9 +1.4 78 +2 +2 по сезону 1005.3 987.1
З 3 20 км ясно +4.5 +2.7 88 +1 +1 по сезону 1006.8 988.5
З 2 20 км 10/10 300 м
[Sc]
+5.5 +3.3 86 +3 +3 по сезону 1007.8 989.5 +4.2
СЗ 4 50 км {ливн. осадки} 10/10 300 м
[Cb cap]
+7.4 +5.1 85 +4 +4 по сезону 1009.3 991.2
СЗ 3
{11}
50 км 9/9 300 м
[Sc]
+8.5 +3.5 71 +6 +6 тепло 1011.2 993.1
З 3 9000 м слаб. дождь 10/10 300 м
[Sc]
+7.1 +5.2 88 +4 +4 по сезону 1011.8 993.6
ЮЗ 2 4000 м дымка {дождь} 9/8 300 м
[Sc Ac trans]
+5.2 +4.6 96 +2 +2 по сезону 1011.4 993.1 +9.1 0.3
ЮЗ 1 4000 м дымка {дождь} 10/0
[Ac trans]
+4.7 +3.4 91 +3 +3 по сезону 1009.5 991.2
СВ 1 4000 м слаб. дождь 10/8 300 м
[Frnb As op]
+4.3 +3.7 96 +3 +3 по сезону 1007.5 989.2
СВ 1 4000 м слаб. дождь 10/8 300 м
[Frnb As op]
+4.0 +3.3 95 +2 +2 по сезону 1006.7 988.4
С 3 4000 м слаб. дождь 10/8 300 м
[Frnb As op]
+3.8 +2.9 94 -0 -0 по сезону 1008.5 990.2 +3.8 3
С 3 9000 м дымка {дождь} 10/10 600 м
[Sc]
+3.0 +1.6 91 -1 -1 по сезону 1011.7 993.2 +2.9
СЗ 4 50 км 10/10 600 м
[Sc]
+2.5 -1.1 77 -2 -2 по сезону 1015.4 996.8
СЗ 4
{10}
50 км 10/10 600 м
[Sc]
+1.3 -3.5 70 -4 -4 прохладно 1018.6 999.9
СЗ 3
{10}
20 км 10/10 600 м
[Sc]
+1.5 -4.4 65 -2 -2 по сезону 1020.7 1001.9 +3.8 0.0
СЗ 3 20 км 10/10 300 м
[Sc]
+0.8 -4.0 70 -3 -3 прохладно 1022.5 1003.7
СЗ 1 20 км 8/8 300 м
[Sc]
-1.3 -3.1 88 -3 -3 прохладно 1024.6 1005.6
СЗ 2 20 км 10/10 300 м
[Sc]
+0.5 -1.4 87 -3 -3 прохладно 1025.9 1007.0
С 3 20 км 10/10 300 м
[Sc]
+1.0 -1.4 84 -3 -3 прохладно 1027.9 1009.0 -1.5
СЗ 1 20 км 10/3 600 м
[Sc Ac trans Cs]
+1.6 -0.4 87 -0 0 по сезону 1029.3 1010.4
З 1 50 км 10/10 300 м
[Sc]
+3.2 -1.3 72 +2 +2 по сезону 1029.3 1010.5
ЮЗ 1 50 км 10/10 300 м
[Sc]
+3.5 -1.2 71 +2 +2 по сезону 1028.5 1009.7
ЮЗ 3 20 км 10/10 300 м
[Sc]
+1.9 -0.8 82 -2 -2 по сезону 1027.6 1008.7 +3.5
Ю 2 4000 м слаб. снег 10/8 300 м
[Frnb As op]
0.0 -0.5 96 -4 -4 прохладно 1025.5 1006.6
ЮВ 3 4000 м дымка {снег} 10/10 300 м
[Cu hum]
+0.2 -0.2 97 -5 -5 холодно 1023.1 1004.3
Ю 3 4000 м дымка {снег} 10/10 300 м
[Cu hum]
+0.8 +0.2 96 -4 -4 прохладно 1019.4 1000.7
Ю 1 4000 м дымка 10/10 600 м
[Sc]
+1.6 +1.1 96 -0 -0 по сезону 1016.5 997.9 -0.1 4
Ю 1 9000 м дымка 10/10 600 м
[Sc]
+3.2 +2.4 94 +2 +2 по сезону 1014.7 996.2
ЮЗ 2 13 км 10/10 600 м
[Sc]
+5.7 +4.1 89 +3 +3 по сезону 1013.6 995.2
ЮЗ 1 9000 м дымка 10/10 600 м
[Sc]
+6.8 +5.5 91 +6 +6 тепло 1013.7 995.4
В 1 4000 м слаб. морось 10/10 300 м
[St]
+6.2 +5.6 96 +5 +5 тепло 1014.1 995.8 +6.8 0.0
В 3 4000 м слаб. морось 10/10 300 м
[St]
+5.1 +4.6 97 +1 +1 по сезону 1013.9 995.6
В 3 4000 м слаб. дождь {морось} 10/8 300 м
[Frnb As op]
+4.2 +3.7 97 0 0 по сезону 1013.4 995.0
В 4 4000 м дымка {дождь} 10/10 300 м
[St]
+3.5 +2.9 96 -1 -1 по сезону 1012.6 994.1
В 4 4000 м слаб. дождь 10/8 300 м
[Frnb As op]
+2.6 +2.0 96 -2 -2 по сезону 1012.3 993.8 +2.6 14
В 4 9000 м слаб. дождь 10/8 300 м
[Frnb As op]
+1.4 +0.7 95 -4 -4 прохладно 1013.9 995.3 +1.3
Местоположение метеостанции Николо-Полома (Костромская область, Россия): широта 58.35 долгота 43.38 высота над уровнем моря 144 м.
В архиве по умолчанию представлена погода в Николо-Поломе за последнюю неделю. Архивные данные за месяц целиком и за предыдущие месяцы, начиная с января 2011 года, Вы можете получить, выбрав интересующий диапазон дат из раскрывающегося списка и нажав кнопку "Найти!".
*Определитесь, кто Вы:
Внимание! Время в таблицах - всемирное. Для получения местного времени необходимо прибавить поправку, которая равна 3 ч.
Смотрите также архив погоды в соседних городах и на ближайших метеорологических станциях:
Партнеры нашего сайта:      
Пояснения к столбцам:
  • Ветер - указаны скорость ветра в м/с - средняя за 10 мин, порывы в срок и между сроками (в фигурных скобках) и направление, откуда дует ветер: С - северный,
  • СВ - северо-восточный, В - восточный, ЮВ - юго-восточный, Ю - южный, ЮЗ - юго-западный, З - западный, СЗ - северо-западный.
  • Видимость - горизонтальная дальность видимости в метрах или километрах. При видимости от 1 до 10 км при отсутствии осадков обычно наблюдается дымка, при ухудшении видимости до 1 км и менее - туман. В сухую погоду видимость может ухудшаться дымом, пылью или мглою.
  • Явления - указаны атмосферные явления, наблюдавшиеся в срок или в последний час перед сроком; фигурными скобками обозначены явления, наблюдавшиеся между сроками (за 1-3 часа до срока); квадратными скобками обозначены град или гололедные отложения с указанием их диаметра в мм.
  • Облачность - указаны через наклонную черту общая и нижняя облачность в баллах и высота нижней границы облаков в метрах; квадратными скобками обозначены формы облаков: Ci - перистые, Cs - перисто-слоистые, Cc - перисто-кучевые, Ac - высококучевые, As - высокослоистые, Sc - слоисто-кучевые, Ns - слоисто-дождевые, Cu - кучевые, Cb - кучево-дождевые. Подробнее классификацию облаков см. в Атласе облаков (PDF).
  • T - Температура воздуха - температура, измеренная на высоте 2 м над землей.
  • Td - Температура точки росы - температура, при понижении до которой содержащийся в воздухе водяной пар достигнет насыщения.
  • f - Относительная влажность воздуха - влажноcть воздуха, измеренная на высоте 2 м над землей.
  • Te - Эффективная температура - температура, которую ощущает одетый по сезону человек в тени. Характеристика душности погоды. При расчете учитывается влияние влажности воздуха и скорости ветра на теплоощущения человека.
  • Tes - Эффективная температура на солнце - температура, которую ощущает человек, с поправкой на солнечный нагрев. Характеристика знойности погоды. Зависит от высоты солнца над горизонтом, облачности и скорости ветра. Ночью, в пасмурную погоду, а также при ветре 12 м/с и более поправка равна нулю.
  • P - Атмосферное давление - приведенное к уровню моря атмосферное давление.
  • Po - Атмосферное давление - измеренное на уровне метеостанции атмосферное давление.
  • Tmin - Минимальная температура - минимум температуры воздуха на высоте 2 м над землей.
  • Tmax - Максимальная температура - максимум температуры воздуха на высоте 2 м над землей.
  • R - Количество осадков - Количество выпавших осадков за период времени, мм. При наведении курсора мыши на число - период времени, за который выпало указанное количество осадков.
  • R24 - Количество осадков - Количество выпавших осадков за 24 часа, мм.
  • S - Снежный покров - Высота снежного покрова, см. При наведении курсора мыши на число - состояние снежного покрова и степень покрытия местности в баллах.